Torna al catalogo

COSMOS 449

AttivoMilitareLEO
NORAD 5552·PAYLOAD·🇷🇺 Russia

Lanciato Oct 13, 1971 da Plesetsk Cosmodrome

Loading…

Prossimi Passaggi (prossime 24 ore)

TLE

AggiornatoSource: Space-Track

Epoca: Sep 14, 2026, 09:11 UTC

1 05552U 71086F   26257.38277807 -.00000027  00000-0 -87232-4 0  9990
2 05552  74.0268  58.6750 0037457 206.3059 162.4946 12.38734786483532

Traccia COSMOS 449 in tempo reale con AllMySat

Download on the App Store